Starlink 3047

decayed
NORAD ID: 49174 Int'l Des: 2021-082 Owner: SPXS Country: US Constellation: starlink
LEOCIRCULAR
Gruppe

Über Starlink 3047

Beschreibung wird geladen...

Höhenverlauf

Altitude vs Time

uPlot chart will show altitude changes over time

Zweizeiliger Elementsatz

1 49174U 21082AW 25302.67357160 .06384653 43255-5 11967-2 0 9990
2 49174 69.9497 167.3418 0010648 227.7305 132.3019 16.31705443229923
Epoch: 29. Okt. 2025 • Age: 1215 hours

Aktueller Status

Position data unavailable
Startdatum 14. Sept. 2021
Alter 4.2 years
Verglühungsdatum 30. Okt. 2025
Typ internet

Technische Details

Klassifizierung Payload
Masse 297.00 kg
Trockenmasse 275.00 kg
Gesamtmasse 297.00 kg
Länge 0.20 m
Durchmesser 2.80 m
Spannweite 9.00 m
Form Box + pan
Hersteller SPXS
Bus-Typ Starlink
Phasenstatus Reentered
Besitzer/Staat SPXS/US

Große Konstellationen

Loading constellations...